User: anonymous   Login
Location: Unspecified
(0.0000°N, 0.0000°E)
Time: 08:02:58
(UTC+00:00)
Language:

USA 176 - Orbit

View from above orbital plane
View from above orbital plane
View from above satellite
View from above satellite

Ground track
Ground track

The orbit data is extracted from the following two-line orbital elements,

1 28158U 04004A   15048.55258055 0.00000000  00000-0  00000-0 0    08
2 28158   6.4100  52.4214 0008649 220.1954 139.7509  1.00270000    09
Epoch (UTC): 17 February 2015 13:15:42
Eccentricity: 0.0008649
inclination: 6.4100°
perigee height: 35750 km
apogee height: 35823 km
right ascension of ascending node: 52.4214°
argument of perigee: 220.1954°
revolutions per day: 1.00270000
mean anomaly at epoch: 139.7509°
orbit number at epoch: 0

The dashed part of the orbit path shows where the satellite is in the earth's shadow,  

DLR